{"data":{"norad_id":65337,"epoch":"2026-09-20T13:51:49.297824Z","epoch_age_seconds":110747,"freshness":"FRESH","line1":"1 65337U 25189Q   26263.57765391  .00014337  00000+0  47248-3 0  9996","line2":"2 65337  53.1613  20.1833 0001024 106.1554 253.9560 15.31726472 60904","mean_motion":15.31726472,"eccentricity":0.0001024,"inclination_deg":53.1613,"raan_deg":20.1833,"arg_perigee_deg":106.1554,"mean_anomaly_deg":253.956,"bstar":0.00047248,"rev_number":6090,"period_min":94.01156318202,"perigee_km":469.95976778376,"apogee_km":471.3624016315,"semimajor_km":6848.7980847076,"source":"CELESTRAK","updated_at":"2026-09-21T09:00:35.571748Z"}}